TimeCDT,TemperatureF,Dew PointF,Humidity,Sea Level PressureIn,VisibilityMPH,Wind Direction,Wind SpeedMPH,Gust SpeedMPH,PrecipitationIn,Events,Conditions,WindDirDegrees,DateUTC
12:09 AM,51.8,51.8,100,30.08,10.0,Calm,Calm,-,N/A,,Clear,0,2013-07-29 05:09:00
12:29 AM,51.8,50.0,94,30.09,10.0,Calm,Calm,-,N/A,,Clear,0,2013-07-29 05:29:00
12:50 AM,50.0,48.2,94,30.08,10.0,Calm,Calm,-,N/A,,Clear,0,2013-07-29 05:50:00
1:09 AM,50.0,48.2,94,30.08,10.0,Calm,Calm,-,N/A,,Clear,0,2013-07-29 06:09:00
1:30 AM,50.0,50.0,100,30.08,10.0,Calm,Calm,-,N/A,,Clear,0,2013-07-29 06:30:00
1:49 AM,51.8,50.0,94,30.08,10.0,SW,3.5,-,N/A,,Clear,220,2013-07-29 06:49:00
2:09 AM,50.0,50.0,100,30.08,10.0,Calm,Calm,-,N/A,,Clear,0,2013-07-29 07:09:00
2:30 AM,48.2,48.2,100,30.08,10.0,Calm,Calm,-,N/A,,Clear,0,2013-07-29 07:30:00
2:49 AM,48.2,48.2,100,30.08,10.0,Calm,Calm,-,N/A,,Clear,0,2013-07-29 07:49:00
3:09 AM,48.2,48.2,100,30.08,10.0,Calm,Calm,-,N/A,,Clear,0,2013-07-29 08:09:00
3:30 AM,46.4,46.4,100,30.09,10.0,Calm,Calm,-,N/A,,Clear,0,2013-07-29 08:30:00
3:49 AM,46.4,46.4,100,30.09,10.0,Calm,Calm,-,N/A,,Clear,0,2013-07-29 08:49:00
4:09 AM,46.4,46.4,100,30.08,10.0,Calm,Calm,-,N/A,,Clear,0,2013-07-29 09:09:00
4:30 AM,46.4,46.4,100,30.08,10.0,Calm,Calm,-,N/A,,Clear,0,2013-07-29 09:30:00
4:49 AM,48.2,46.4,93,30.09,10.0,Calm,Calm,-,N/A,,Clear,0,2013-07-29 09:49:00
5:09 AM,46.4,46.4,100,30.09,10.0,Calm,Calm,-,N/A,,Clear,0,2013-07-29 10:09:00
5:30 AM,46.4,46.4,100,30.10,10.0,Calm,Calm,-,N/A,,Clear,0,2013-07-29 10:30:00
5:49 AM,46.4,46.4,100,30.10,7.0,Calm,Calm,-,N/A,,Clear,0,2013-07-29 10:49:00
6:09 AM,46.4,46.4,100,30.10,7.0,Calm,Calm,-,N/A,,Clear,0,2013-07-29 11:09:00
6:30 AM,46.4,46.4,100,30.10,10.0,Calm,Calm,-,N/A,,Clear,0,2013-07-29 11:30:00
6:49 AM,50.0,50.0,100,30.11,7.0,Calm,Calm,-,N/A,,Clear,0,2013-07-29 11:49:00
7:09 AM,50.0,50.0,100,30.11,10.0,Calm,Calm,-,N/A,,Clear,0,2013-07-29 12:09:00
7:29 AM,53.6,51.8,94,30.11,10.0,Calm,Calm,-,N/A,,Clear,0,2013-07-29 12:29:00
7:49 AM,53.6,53.6,100,30.12,10.0,Calm,Calm,-,N/A,,Clear,0,2013-07-29 12:49:00
8:10 AM,55.4,53.6,94,30.12,10.0,Calm,Calm,-,N/A,,Clear,0,2013-07-29 13:10:00
8:29 AM,57.2,53.6,88,30.13,10.0,Calm,Calm,-,N/A,,Clear,0,2013-07-29 13:29:00
8:49 AM,59.0,55.4,88,30.14,10.0,Calm,Calm,-,N/A,,Clear,0,2013-07-29 13:49:00
9:09 AM,62.6,55.4,77,30.14,10.0,SSE,5.8,-,N/A,,Clear,150,2013-07-29 14:09:00
9:29 AM,64.4,55.4,73,30.14,10.0,SSE,5.8,-,N/A,,Clear,150,2013-07-29 14:29:00
9:50 AM,66.2,55.4,68,30.14,10.0,SE,5.8,-,N/A,,Clear,130,2013-07-29 14:50:00
10:09 AM,68.0,57.2,68,30.14,10.0,SE,4.6,-,N/A,,Clear,140,2013-07-29 15:09:00
10:29 AM,66.2,57.2,73,30.14,10.0,SSE,5.8,-,N/A,,Clear,150,2013-07-29 15:29:00
10:50 AM,68.0,55.4,64,30.14,10.0,SSE,4.6,-,N/A,,Clear,150,2013-07-29 15:50:00
11:09 AM,68.0,55.4,64,30.14,10.0,SE,5.8,-,N/A,,Clear,140,2013-07-29 16:09:00
11:29 AM,69.8,55.4,60,30.14,10.0,Calm,Calm,-,N/A,,Clear,0,2013-07-29 16:29:00
11:50 AM,69.8,55.4,60,30.13,10.0,South,5.8,-,N/A,,Scattered Clouds,190,2013-07-29 16:50:00
12:09 PM,69.8,53.6,56,30.13,10.0,South,5.8,-,N/A,,Scattered Clouds,180,2013-07-29 17:09:00
12:30 PM,71.6,53.6,53,30.12,10.0,Calm,Calm,-,N/A,,Scattered Clouds,0,2013-07-29 17:30:00
12:50 PM,71.6,53.6,53,30.12,10.0,SSE,5.8,-,N/A,,Scattered Clouds,160,2013-07-29 17:50:00
1:09 PM,73.4,53.6,50,30.11,10.0,SSE,4.6,-,N/A,,Scattered Clouds,150,2013-07-29 18:09:00
1:30 PM,73.4,53.6,50,30.11,10.0,SSE,6.9,-,N/A,,Scattered Clouds,160,2013-07-29 18:30:00
1:49 PM,73.4,55.4,53,30.10,10.0,Calm,Calm,-,N/A,,Scattered Clouds,0,2013-07-29 18:49:00
2:09 PM,73.4,53.6,50,30.10,10.0,SW,5.8,-,N/A,,Scattered Clouds,220,2013-07-29 19:09:00
2:30 PM,73.4,53.6,50,30.10,10.0,SSE,3.5,-,N/A,,Scattered Clouds,160,2013-07-29 19:30:00
2:49 PM,73.4,53.6,50,30.10,10.0,South,4.6,-,N/A,,Scattered Clouds,170,2013-07-29 19:49:00
3:09 PM,73.4,53.6,50,30.10,10.0,South,6.9,-,N/A,,Scattered Clouds,190,2013-07-29 20:09:00
3:30 PM,73.4,53.6,50,30.10,10.0,South,5.8,-,N/A,,Scattered Clouds,180,2013-07-29 20:30:00
3:49 PM,71.6,53.6,53,30.10,10.0,SSE,5.8,-,N/A,,Scattered Clouds,150,2013-07-29 20:49:00
4:09 PM,75.2,53.6,47,30.10,10.0,SSE,9.2,-,N/A,,Scattered Clouds,160,2013-07-29 21:09:00
4:30 PM,75.2,53.6,47,30.10,10.0,South,5.8,-,N/A,,Scattered Clouds,180,2013-07-29 21:30:00
4:49 PM,75.2,53.6,47,30.09,10.0,SSE,10.4,-,N/A,,Scattered Clouds,160,2013-07-29 21:49:00
5:09 PM,73.4,53.6,50,30.09,10.0,SSE,6.9,-,N/A,,Scattered Clouds,160,2013-07-29 22:09:00
5:30 PM,71.6,53.6,53,30.09,10.0,South,5.8,-,N/A,,Clear,180,2013-07-29 22:30:00
5:49 PM,71.6,53.6,53,30.09,10.0,South,3.5,-,N/A,,Clear,170,2013-07-29 22:49:00
6:10 PM,73.4,53.6,50,30.09,10.0,South,4.6,-,N/A,,Scattered Clouds,170,2013-07-29 23:10:00
6:30 PM,71.6,53.6,53,30.09,10.0,SSE,3.5,-,N/A,,Scattered Clouds,160,2013-07-29 23:30:00
6:49 PM,71.6,55.4,57,30.09,10.0,South,3.5,-,N/A,,Clear,170,2013-07-29 23:49:00
7:10 PM,71.6,55.4,57,30.09,10.0,Calm,Calm,-,N/A,,Clear,0,2013-07-30 00:10:00
7:29 PM,69.8,57.2,64,30.09,10.0,Calm,Calm,-,N/A,,Clear,0,2013-07-30 00:29:00
7:49 PM,68.0,57.2,68,30.09,5.0,Calm,Calm,-,N/A,,Haze,0,2013-07-30 00:49:00
8:10 PM,68.0,57.2,68,30.09,7.0,Calm,Calm,-,N/A,,Scattered Clouds,0,2013-07-30 01:10:00
8:29 PM,66.2,57.2,73,30.09,10.0,Calm,Calm,-,N/A,,Clear,0,2013-07-30 01:29:00
8:49 PM,66.2,57.2,73,30.09,10.0,ESE,3.5,-,N/A,,Clear,110,2013-07-30 01:49:00
9:10 PM,64.4,57.2,77,30.09,10.0,Calm,Calm,-,N/A,,Clear,0,2013-07-30 02:10:00
9:29 PM,64.4,57.2,77,30.09,10.0,SE,3.5,-,N/A,,Scattered Clouds,140,2013-07-30 02:29:00
9:49 PM,64.4,57.2,77,30.10,10.0,SSE,3.5,-,N/A,,Mostly Cloudy,150,2013-07-30 02:49:00
10:09 PM,64.4,57.2,77,30.10,10.0,SSE,3.5,-,N/A,,Mostly Cloudy,160,2013-07-30 03:09:00
10:29 PM,62.6,57.2,82,30.10,10.0,Calm,Calm,-,N/A,,Scattered Clouds,0,2013-07-30 03:29:00
10:50 PM,62.6,57.2,82,30.10,10.0,Calm,Calm,-,N/A,,Scattered Clouds,0,2013-07-30 03:50:00
11:09 PM,62.6,57.2,82,30.10,10.0,SE,3.5,-,N/A,,Overcast,140,2013-07-30 04:09:00
11:29 PM,62.6,57.2,82,30.10,10.0,Calm,Calm,-,N/A,,Overcast,0,2013-07-30 04:29:00
11:50 PM,62.6,57.2,82,30.11,10.0,Calm,Calm,-,N/A,,Overcast,0,2013-07-30 04:50:00